Regional Weather Roundup
Issued by NWS

Home | Current Version | Previous Version | Graphics & Text | Print | Product List | Glossary On
Versions: 1 2 3 4 5 6 7 8 9 10 11 12 13 14 15 16 17 18 19 20 21 22 23 24 25 26 27 28 29 30 31 32 33 34 35 36 37 38 39 40 41 42 43 44 45 46 47 48 49 50
000
ASUS43 KMKX 310120
RWRWI

WISCONSIN REGIONAL WEATHER ROUNDUP
NATIONAL WEATHER SERVICE MILWAUKEE/SULLIVAN WI
800 PM CDT MON MAR 30 2015

NOTE: "FAIR" INDICATES FEW OR NO CLOUDS BELOW 12,000 FEET WITH NO
SIGNIFICANT WEATHER AND/OR OBSTRUCTIONS TO VISIBILITY.

WIZ001-002-006>008-014>016-023>028-310200-
NORTHWEST WISCONSIN

CITY           SKY/WX    TMP DP  RH WIND       PRES   REMARKS
SUPERIOR ARPT  CLOUDY    38  38  97 SW5       29.87S WCI  35
ASHLAND        CLOUDY    42  34  73 SW9       29.87S
HAYWARD        LGT RAIN  38  37  97 CALM      29.87S
SIREN          CLOUDY    41  38  91 NE8       29.86S
CUMBERLAND     CLOUDY    41  37  87 N5        29.84S
RICE LAKE      CLOUDY    40  38  91 N5        29.86S
CHETEK         CLOUDY    40  38  93 N3        29.85R
LADYSMITH      LGT RAIN  40  38  93 N8        29.87R WCI  35
EAU CLAIRE     MOCLDY    44  38  79 NE8       29.81R
MENOMONIE      CLOUDY    46  39  78 N8        29.83R
NEW RICHMOND   MOCLDY    44  37  77 NE6       29.83R
OSCEOLA        CLOUDY    46  39  78 NE8       29.86R
$$

WIZ003>005-009-010-017-018-310200-
NORTH CENTRAL WISCONSIN

CITY           SKY/WX    TMP DP  RH WIND       PRES   REMARKS
MANITOWISH WTR CLOUDY    41  27  55 CALM      29.84R
ARBOR VITAE    CLOUDY    42  32  68 SE5       29.84S
WOODRUFF       CLOUDY    42  32  68 SE5       29.84S
RHINELANDER    LGT RAIN  40  32  73 NW5       29.85R
EAGLE RIVER    CLOUDY    42  21  42 N6        29.84R
LAND O LAKES   CLOUDY    43  19  39 NE3       29.84S
PHILLIPS       LGT RAIN  37  35  95 CALM      29.86R
TOMAHAWK       LGT RAIN  37  35  93 CALM      29.86R
MEDFORD        LGT RAIN  38  37  97 N7        29.83R WCI  33
MERRILL        RAIN      39  38  98 NE6       29.85R WCI  34
$$

WIZ029-030-035-036-043>047-310200-
CENTRAL WISCONSIN

CITY           SKY/WX    TMP DP  RH WIND       PRES   REMARKS
WAUSAU         LGT RAIN  41  39  93 N3        29.81F
MOSINEE        CLOUDY    39  39 100 CALM      29.83F
MARSHFIELD     CLOUDY    41  39  93 NE3       29.80F
STEVENS POINT  LGT RAIN  39  38  98 NE3       29.82R
WAUPACA        CLOUDY    44  41  91 S3        29.83F
WAUTOMA        CLOUDY    44  43  97 CALM      29.84F
WISC RAPIDS    LGT RAIN  43  39  86 SE3       29.81F
CAMP DOUGLAS   CLOUDY    44  42  95 SE8       29.79F
$$

WIZ011>013-019>022-031-037>040-048>050-310200-
NORTHEAST WISCONSIN

CITY           SKY/WX    TMP DP  RH WIND       PRES   REMARKS
ANTIGO         LGT RAIN  39  35  87 CALM      29.84S
SHAWANO        CLOUDY    46  37  69 SW8       29.85R
OCONTO         CLOUDY    38  31  74 CALM      29.84S
STURGEON BAY   CLOUDY    36  28  75 SE8       29.87S WCI  29
GREEN BAY      CLOUDY    45  37  73 SW6       29.83F
MANITOWOC      CLOUDY    44  41  89 SW8       29.83F
APPLETON       LGT RAIN  41  39  93 SW8       29.85S
CLINTONVILLE   LGT RAIN  41  39  93 NW5       29.84S
OSHKOSH        CLOUDY    42  39  89 SW6       29.84F
$$

WIZ032>034-041-042-053>061-310200-
SOUTHWEST WISCONSIN

CITY           SKY/WX    TMP DP  RH WIND       PRES   REMARKS
LA CROSSE      MOCLDY    54  32  43 E6        29.75F
SPARTA         PTCLDY    46  33  59 SE5       29.79F
VIROQUA        CLEAR     49  31  49 SE9       29.77F
BOSCOBEL       CLOUDY    56  30  37 VRB3      29.79F
PRAIRIE DU CHI MOCLDY    54  31  42 CALM      29.78R
PLATTEVILLE    CLOUDY    51  37  59 E10       29.78F
$$

WIZ056-057-062-063-064-067-068-310200-
SOUTH CENTRAL WISCONSIN

CITY           SKY/WX    TMP DP  RH WIND       PRES   REMARKS
REEDSBURG      CLOUDY    48  36  63 E3        29.80S
BARABOO/DELLS  CLOUDY    47  35  63 E3        29.80F
LONE ROCK      CLOUDY    52  33  48 SE6       29.80F
MINERAL POINT  CLOUDY    50  32  50 SE9       29.79F
MADISON        CLOUDY    48  35  60 SE6       29.82F
MIDDLETON      CLOUDY    49  34  56 SE6       29.82F
WATERTOWN      CLOUDY    46  39  76 E6        29.83F
MONROE         CLOUDY    50  34  53 SE12      29.80F
JANESVILLE     CLOUDY    50  36  57 SE6       29.83
$$

WIZ051-052-058>065-066-070>072-310200-
SOUTHEAST WISCONSIN

CITY           SKY/WX    TMP DP  RH WIND       PRES   REMARKS
MILWAUKEE      CLOUDY    47  39  74 SE10      29.86F
WAUKESHA       CLOUDY    45  37  76 E6        29.87F
MILWAUKEE/TIMM CLOUDY    48  37  66 SE6       29.87F
RACINE         LGT RAIN  48  40  73 SE7       29.89F
BURLINGTON     CLOUDY    47  36  65 SE10      29.83F
KENOSHA        CLOUDY    48  42  80 E7        29.87F
FOND DU LAC    CLOUDY    44  40  85 CALM      29.84F
SHEBOYGAN      CLOUDY    44  40  85 S5        29.84F
WEST BEND      CLOUDY    43  37  81 SE6       29.84F
JUNEAU         CLOUDY    44  40  87 SE9       29.84F
$$

LSZ147-162-310200-
LAKE SUPERIOR

STATION/POSITION TIME  TEMP    WIND        PRES    WAVE
                       AIR SEA DIR/SP/G            HT/PER
                 (UTC) (F)     (DEG/KT/KT) (MB)    (FT/S)
DEVILS ISLAND    0100   43     200/ 10/ 10 1011.2R
PORT WING        0040   42     200/  5/  8 1011.5R
SAXON HARBOR     0000   43        CALM     1010.8R
$$

LMZ867-665-643>646-310200-
LAKE MICHIGAN

STATION/POSITION TIME  TEMP    WIND        PRES    WAVE
                       AIR SEA DIR/SP/G            HT/PER
                 (UTC) (F)     (DEG/KT/KT) (MB)    (FT/S)
NORTHPORT PIER   0000   36     160/  8/ 12 1011.9S
SISTER BAY       0002   38     140/ 10/ 12   N/A
KEWAUNEE LAKESHO 0100           60/  2/  3 1009.6F
SHEBOYGAN LAKESH 0100   46     190/  6/  6 1011.3F
PORT WASHINGTON  0000   46     170/  4/  5 1012.2F
MILWAUKEE LAKESH 0100   42     130/  7/  9   N/A
KENOSHA   LAKESH 0100   42     150/  7/  8 1011.9F
$$

TC  - TEMPERATURE IN CELSIUS
VSB - VISIBILITY IN STATUTE MILES
WCI - WIND CHILL INDEX
HX  - HEAT INDEX



USA.gov is the U.S. government's official web portal to all federal, state and local government web resources and services.